Mobile Downtown, AL

3:44 AM CDT on June 28, 2017 (GMT -0500)
Mobile Downtown

Weather History for KBFM - February, 2013

Change the Weather History Date:

Friday, February 15, 2013

  Actual Average Record
Temperature  
Mean Temperature 50 °F -  
Max Temperature 63 °F 61 °F 72 °F (2003)
Min Temperature 37 °F 43 °F 30 °F (2007)
Degree Days  
Heating Degree Days 15    
Moisture  
Dew Point 39 °F    
Average Humidity 74    
Maximum Humidity 100    
Minimum Humidity 31    
Precipitation  
Precipitation 0.01 in - - ()
Sea Level Pressure  
Sea Level Pressure 30.13 in    
Wind  
Wind Speed 3 mph (NW)    
Max Wind Speed 13 mph    
Max Gust Speed -    
Visibility 8 miles    
Events      
Averages and records for this station are not official NWS values.
T = Trace of Precipitation, MM = Missing Value Source: NWS Daily Summary

Daily Weather History Graph

Daily Weather History Graph

Search for Another Location

Airport or City:

Trip Planner

Search our weather history database for the weather conditions in past years. The results will help you decide how hot, cold, wet, or windy it might be!

Date:

Astronomy

Feb. 15, 2013 Rise Set
Actual Time 6:32 AM CST 5:40 PM CST
Civil Twilight 6:08 AM CST 6:05 PM CST
Nautical Twilight 5:39 AM CST 6:33 PM CST
Astronomical Twilight 5:11 AM CST 7:01 PM CST
Moon 9:35 AM CST (2/15) 11:12 PM CST (2/15)
Length of Visible Light 11h 57m
Length of Day
11h 07m
Waxing Crescent, 30% of the Moon is Illuminated
Feb 15
Waxing Crescent
Feb 17
First Quarter
Feb 25
Full
Mar 4
Last Quarter
Mar 11
New

Hourly Weather History & Observations

Time (CST) Temp. Windchill Dew Point Humidity Pressure Visibility Wind Dir Wind Speed Gust Speed Precip Events Conditions
12:53 AM 39.9 °F - 39.9 °F 100% 30.13 in 3.0 mi Calm Calm - N/A   Clear
1:16 AM 39.2 °F 37.0 °F 39.2 °F 100% 30.12 in 2.5 mi West 3.5 mph - N/A   Clear
1:31 AM 39.2 °F - 39.2 °F 100% 30.12 in 4.0 mi Calm Calm - N/A   Clear
1:53 AM 39.9 °F 37.8 °F 39.9 °F 100% 30.13 in 5.0 mi NNW 3.5 mph - N/A   Clear
2:53 AM 37.9 °F - 37.0 °F 97% 30.12 in 4.0 mi Calm Calm - N/A   Clear
3:24 AM 37.4 °F 34.9 °F 37.4 °F 100% 30.12 in 4.0 mi NW 3.5 mph - N/A   Clear
3:25 AM 39.2 °F 37.0 °F 37.4 °F 93% 30.12 in 10.0 mi NW 3.5 mph - N/A   Clear
3:53 AM 39.0 °F 35.7 °F 39.0 °F 100% 30.13 in 10.0 mi NW 4.6 mph - N/A   Clear
4:53 AM 37.0 °F - 37.0 °F 100% 30.13 in 4.0 mi Calm Calm - N/A   Clear
5:53 AM 39.0 °F 36.8 °F 37.9 °F 96% 30.16 in 6.0 mi NNW 3.5 mph - 0.01 in   Clear
6:53 AM 37.9 °F - 37.0 °F 97% 30.17 in 10.0 mi Calm Calm - N/A   Clear
7:53 AM 45.0 °F 43.5 °F 41.0 °F 86% 30.18 in 10.0 mi NNW 3.5 mph - N/A   Clear
8:53 AM 52.0 °F - 43.0 °F 71% 30.19 in 10.0 mi NNW 4.6 mph - N/A   Clear
9:53 AM 55.0 °F - 43.0 °F 64% 30.19 in 10.0 mi NE 6.9 mph - N/A   Clear
10:53 AM 57.9 °F - 45.0 °F 62% 30.18 in 10.0 mi ENE 6.9 mph - N/A   Clear
11:53 AM 59.0 °F - 39.9 °F 49% 30.15 in 10.0 mi ENE 5.8 mph - N/A   Clear
12:53 PM 61.0 °F - 37.0 °F 41% 30.12 in 10.0 mi East 3.5 mph - N/A   Clear
1:53 PM 62.1 °F - 34.0 °F 35% 30.09 in 10.0 mi East 5.8 mph - N/A   Clear
2:53 PM 63.0 °F - 36.0 °F 37% 30.07 in 10.0 mi SE 6.9 mph - N/A   Clear
3:53 PM 63.0 °F - 32.0 °F 31% 30.07 in 10.0 mi SE 3.5 mph - N/A   Clear
4:53 PM 61.0 °F - 36.0 °F 39% 30.07 in 10.0 mi SSW 4.6 mph - N/A   Clear
5:53 PM 55.9 °F - 41.0 °F 57% 30.08 in 10.0 mi WSW 6.9 mph - N/A   Clear
6:53 PM 54.0 °F - 42.1 °F 64% 30.09 in 10.0 mi SW 4.6 mph - N/A   Clear
7:53 PM 52.0 °F - 42.1 °F 69% 30.10 in 10.0 mi WSW 4.6 mph - N/A   Clear
8:53 PM 51.1 °F - 43.0 °F 74% 30.11 in 10.0 mi West 5.8 mph - N/A   Clear
9:53 PM 52.0 °F - 44.1 °F 74% 30.12 in 10.0 mi West 6.9 mph - N/A   Clear
10:53 PM 52.0 °F - 41.0 °F 66% 30.12 in 10.0 mi NW 12.7 mph - N/A   Clear
11:53 PM 50.0 °F - 39.9 °F 68% 30.12 in 10.0 mi NNW 12.7 mph - N/A   Clear